Wind_Speed
15 15 9 5 5 7 12 8 9 10 13 10 12 9 8 3 3 3 11 10 10 10 11 12 11 11 10 9 7 6 5 5 3 2 1 2 2 3 4 7 7 8 9 10 11 11 11 11 11
15 12 9 7 10 14 11 9 8 6 10 9 10 10 7 6 6 9 12 9 10 8 8 10 10 9 9 8 7 6 5 4 3 2 0 2 4 5 6 6 6 7 8 9 9 9 10 10 11
13 12 8 4 8 6 11 9 6 9 8 6 10 9 9 9 9 9 11 9 9 9 8 7 9 9 9 8 7 6 5 4 2 0 1 2 3 3 4 5 5 5 5 5 6 7 7 8 9
12 8 7 6 8 7 6 8 8 10 9 5 6 5 7 8 8 8 9 9 8 8 8 7 7 7 7 8 7 6 4 2 1 2 2 3 4 3 2 2 3 2 2 3 3 4 5 6 7
12 9 7 5 4 9 9 7 9 8 9 8 6 6 6 6 7 6 7 8 7 6 8 8 8 8 7 6 4 4 3 3 2 2 3 3 3 2 2 2 3 3 4 4 4 4 5 5 6
10 8 8 7 9 8 6 5 8 6 7 7 5 6 6 6 8 8 7 7 6 5 5 5 6 7 7 7 6 5 5 5 4 3 4 6 4 4 5 6 6 6 6 7 7 7 8 7 7
8 7 5 2 11 11 8 10 9 6 6 6 4 4 4 6 7 8 8 6 5 4 4 5 6 6 7 7 7 7 7 6 5 5 6 7 8 11 11 11 11 11 10 10 9 10 11 11 11
8 9 4 5 8 6 5 11 11 9 9 7 4 1 4 5 5 6 7 7 6 6 6 6 6 7 7 6 5 6 6 7 7 7 7 8 9 11 14 13 12 10 11 12 14 15 14 14 15
7 7 8 5 10 6 5 6 9 10 9 10 7 6 5 4 5 5 6 7 8 8 8 8 8 8 8 8 8 8 9 9 9 10 10 10 11 12 12 13 14 14 14 13 13 17 18 18 18
8 8 9 7 8 7 6 8 10 13 13 12 11 9 8 6 7 7 7 8 8 8 8 9 9 10 10 10 11 11 11 12 13 12 12 12 11 11 13 11 14 16 16 16 16 14 15 17 19
8 7 7 6 7 7 10 12 13 14 17 14 11 10 9 7 7 7 9 10 7 7 8 8 9 10 10 11 12 12 11 11 10 10 11 11 11 13 13 13 12 14 13 13 13 12 10 11 14
7 7 8 9 11 13 15 16 16 15 14 13 14 12 10 10 9 8 9 9 9 9 10 11 11 12 12 12 13 11 11 11 11 12 11 11 11 12 13 13 13 14 15 15 16 15 14 12 12
8 8 9 10 12 14 15 15 16 16 13 14 14 14 14 14 13 11 12 12 11 11 12 12 13 14 14 15 15 14 15 15 14 13 13 13 13 13 13 13 13 12 13 14 15 15 15 14 14
10 11 12 10 11 13 15 16 18 14 13 13 15 16 17 17 17 15 14 14 13 13 13 13 14 14 15 15 16 16 16 17 17 17 15 14 13 12 13 13 12 12 13 14 15 15 15 14 13
10 11 13 11 12 14 15 20 18 15 16 18 17 18 19 19 18 17 18 18 17 15 14 14 14 14 14 15 16 17 18 18 17 17 14 14 13 13 12 11 11 12 12 11 11 11 11 11 10
13 14 16 12 12 16 17 24 16 17 17 17 18 17 17 20 21 22 22 21 20 19 17 16 15 15 15 17 17 18 18 18 17 15 15 14 13 11 11 11 11 10 9 9 9 8 7 8 8
15 16 16 15 14 16 17 21 14 12 14 15 18 18 19 20 19 21 21 22 22 21 20 18 17 18 19 19 19 18 17 16 15 16 15 13 12 11 11 11 9 8 10 11 11 13 12 11 9
15 16 17 17 14 15 20 24 19 20 20 19 20 21 22 22 20 22 24 24 25 25 23 22 20 20 21 21 20 19 17 15 15 14 12 12 11 11 11 10 9 10 11 12 11 11 10 10 13
19 19 19 17 15 20 22 25 22 21 26 27 27 27 27 26 25 27 26 27 29 28 27 25 23 23 23 23 22 20 18 16 15 13 12 13 12 11 11 11 12 13 13 11 10 12 13 15 17
22 23 27 25 24 28 30 35 32 32 35 33 31 30 29 30 31 32 31 31 31 31 30 28 27 25 25 25 23 22 20 19 19 18 16 15 13 12 12 13 15 15 14 13 14 15 17 19 21
24 26 26 25 24 28 30 41 37 35 36 36 35 32 32 33 33 35 36 34 34 33 32 31 29 26 25 24 24 23 22 22 22 19 17 15 15 14 15 17 16 16 17 17 17 19 21 23 26
26 23 23 25 26 27 22 17 33 37 39 36 33 32 33 35 35 36 36 37 37 36 37 35 32 28 26 25 25 24 23 22 22 21 19 18 17 16 18 19 19 19 20 22 22 24 25 27 29
28 24 22 24 28 28 33 20 34 30 40 37 30 22 23 28 32 34 33 32 32 34 33 35 33 29 27 27 27 26 26 26 26 23 20 19 19 19 21 22 21 22 25 25 25 27 29 31 34
27 25 23 23 22 13 38 27 30 35 35 31 19 21 18 19 24 29 31 32 33 32 32 33 33 31 29 29 28 27 26 26 26 23 21 21 21 22 24 25 25 26 28 28 29 31 32 35 39
25 21 6 4 4 9 21 23 40 35 36 29 20 24 28 26 26 27 28 29 29 29 30 31 32 32 30 30 28 27 27 27 26 24 23 23 24 25 27 28 28 29 30 31 31 32 35 39 44
30 34 16 7 5 5 9 15 18 13 20 31 32 28 26 29 25 26 24 25 25 28 31 33 32 32 32 30 28 28 28 27 26 26 26 26 27 28 30 30 30 31 32 33 33 35 39 44 42
30 39 36 30 18 9 20 40 46 43 40 17 24 24 23 27 25 25 24 23 26 30 31 30 31 31 31 30 28 28 28 27 27 27 28 29 30 31 31 31 32 32 34 33 35 39 42 39 38
38 23 18 22 2 6 10 21 25 14 17 6 15 11 19 23 23 22 23 24 27 28 30 30 32 31 29 29 29 28 28 28 29 30 30 31 33 33 32 33 33 34 34 35 38 40 38 37 39
34 39 24 20 21 5 2 11 16 8 6 12 11 15 18 20 20 19 20 25 27 30 30 31 31 31 31 30 29 29 29 30 31 32 33 34 34 35 35 34 34 34 33 37 39 37 37 39 40
39 39 45 20 11 23 26 41 30 26 31 20 15 15 20 27 27 26 22 23 26 29 32 32 33 33 32 30 29 28 30 31 33 34 35 36 36 36 36 35 36 34 35 39 38 36 39 40 40
Wind_Direction
142 141 122 103 122 119 117 129 141 158 157 176 168 167 171 160 189 201 145 139 134 138 153 155 159 164 166 168 167 166 155 165 166 151 49 21 44 56 53 55 57 50 53 49 44 41 38 33 26
142 137 103 101 120 126 122 131 149 161 153 145 160 176 173 165 130 126 132 132 129 139 148 154 161 165 168 172 176 178 180 190 194 209 151 90 94 84 74 72 68 67 62 60 55 50 43 35 29
144 135 113 96 159 128 147 154 185 160 141 129 127 114 126 133 129 122 121 125 133 140 146 156 163 168 176 181 192 202 211 224 226 276 20 33 49 65 79 79 65 61 59 55 51 46 41 36 29
152 145 97 116 114 130 154 150 164 164 163 156 143 126 136 144 127 117 121 124 134 144 151 159 170 175 183 190 198 208 223 235 293 331 353 360 4 11 47 62 75 59 43 37 31 27 20 17 16
153 144 124 118 112 137 147 150 158 163 184 162 155 150 144 150 134 143 132 126 138 150 160 167 177 184 190 198 212 230 244 252 261 319 347 344 331 357 53 31 15 3 4 1 2 2 0 1 1
159 162 136 149 149 160 173 186 195 174 179 168 163 160 162 163 165 167 164 158 146 158 167 177 184 189 196 201 209 223 239 253 265 288 312 316 326 331 339 338 345 346 345 350 349 348 347 345 342
186 165 136 88 183 180 204 206 203 197 203 188 166 158 166 171 187 185 183 183 184 199 193 199 198 200 207 215 218 224 232 237 252 268 272 291 319 331 332 336 342 343 344 345 343 343 339 337 336
187 188 170 158 207 200 194 207 214 214 214 225 200 200 199 187 203 199 212 215 222 232 236 240 232 223 225 233 242 254 264 270 271 275 286 300 315 316 323 327 329 340 339 342 338 337 335 333 330
201 192 180 173 197 229 228 217 235 240 221 223 228 238 248 249 247 248 231 232 237 245 247 249 246 244 241 240 241 245 249 254 259 266 277 293 305 310 323 332 339 342 338 336 335 331 330 327 325
211 202 193 207 212 236 243 233 252 247 237 230 239 245 244 252 253 259 256 251 247 245 243 239 243 246 248 250 255 260 263 264 273 287 290 292 297 301 308 324 331 339 344 342 337 339 333 326 322
212 213 210 217 236 249 254 261 262 250 242 244 250 254 244 260 259 243 237 242 241 239 239 241 239 242 244 245 248 253 260 269 280 290 287 289 293 301 307 313 314 320 324 331 333 338 336 318 307
221 229 236 238 249 257 264 265 264 254 246 241 245 250 258 272 268 254 236 233 232 235 238 240 243 245 245 248 250 256 258 254 255 258 268 271 269 275 282 296 303 309 316 321 320 325 333 325 321
247 254 254 249 255 258 260 259 256 258 253 250 250 255 265 269 270 259 248 237 231 233 240 244 244 246 247 247 248 242 242 245 245 248 248 255 260 264 270 276 283 295 306 313 316 315 314 318 323
266 265 262 257 255 255 257 256 253 256 260 258 262 261 264 266 270 261 256 246 239 239 243 248 250 249 248 246 245 245 243 244 244 241 241 244 250 260 271 281 296 305 308 313 314 315 317 320 325
266 266 267 263 255 258 259 254 259 261 258 264 265 266 265 265 265 260 262 251 248 250 252 252 252 250 246 245 246 247 250 250 248 251 254 249 251 256 269 282 291 298 306 313 317 320 315 315 326
266 273 270 267 262 259 256 262 265 263 258 261 263 261 267 267 258 261 263 252 250 255 261 263 262 256 248 246 249 252 255 257 254 250 247 249 252 255 263 272 283 294 305 310 312 313 312 325 327
263 265 270 271 260 256 253 266 266 266 264 259 264 264 265 264 265 264 259 252 253 258 262 263 263 259 251 250 251 252 253 251 244 239 237 236 241 248 260 267 273 290 295 304 319 328 332 317 308
274 268 273 262 265 255 259 263 267 269 272 272 268 269 265 263 269 264 259 252 253 257 260 263 264 260 256 253 250 247 245 243 237 231 235 239 243 251 259 266 275 284 293 304 307 310 303 300 306
268 267 259 256 263 272 262 264 261 265 272 272 275 276 273 270 266 259 255 252 253 256 259 261 265 265 256 253 251 248 244 239 237 233 238 244 244 253 263 267 275 278 283 288 295 296 297 294 295
257 260 261 269 265 264 268 268 268 263 269 274 277 272 271 270 265 262 260 257 255 254 255 261 266 267 261 253 246 243 238 230 222 221 234 244 256 262 264 264 266 271 274 277 278 282 287 292 296
256 256 264 268 276 277 279 275 268 270 273 275 275 277 273 272 269 265 258 259 258 258 259 260 263 266 258 248 242 241 239 233 226 229 232 247 258 256 254 257 263 265 271 270 274 281 286 292 297
260 260 263 269 270 272 273 281 274 278 279 277 279 278 281 275 269 267 263 255 254 255 255 257 260 259 249 241 239 240 238 231 228 232 239 250 256 256 256 258 260 264 267 271 278 283 287 291 294
261 264 262 264 264 268 264 270 280 281 281 286 295 280 278 270 266 262 261 259 257 255 256 253 253 248 243 237 236 238 238 234 230 234 244 253 259 258 255 255 257 263 269 276 282 288 294 299 304
252 255 256 260 260 263 265 254 272 271 284 293 287 291 288 291 286 267 257 253 253 253 254 248 246 241 240 234 235 238 236 234 235 242 251 260 260 257 256 254 258 266 272 279 286 294 300 305 307
234 231 242 268 222 245 267 252 258 274 283 289 283 292 296 292 279 271 258 252 252 253 254 254 249 240 237 232 234 237 237 237 238 244 253 260 260 260 255 257 264 270 277 284 291 298 305 308 308
235 226 208 220 214 257 253 244 269 288 282 286 295 297 284 286 275 270 258 250 249 251 251 253 247 235 232 230 234 236 238 238 241 247 250 254 256 259 260 263 268 274 281 287 296 304 308 309 307
224 221 237 250 273 285 257 264 270 272 276 283 292 295 289 277 272 267 265 260 252 251 247 247 239 230 226 229 233 236 237 240 246 249 251 253 256 260 262 266 272 279 284 292 301 306 308 306 306
225 237 214 218 244 250 255 261 246 255 285 282 296 300 284 286 287 276 268 265 259 244 243 237 228 222 224 229 233 234 237 242 246 248 249 253 255 260 265 270 275 280 287 296 303 306 305 305 308
218 222 216 223 227 211 283 258 274 214 264 301 288 292 287 293 295 285 276 259 253 244 240 234 226 224 227 230 231 235 240 245 247 247 250 254 259 263 267 272 276 282 293 300 303 302 303 306 308
229 228 215 207 210 230 246 261 252 261 279 278 281 292 281 271 276 287 280 261 251 244 238 231 229 229 229 228 233 237 243 248 249 250 253 257 260 263 268 272 277 287 297 301 301 301 304 306 308
Height
3186 3188 3188 3189 3193 3191 3192 3194 3193 3193 3195 3195 3196 3197 3197 3196 3196 3199 3197 3197 3197 3198 3200 3201 3203 3203 3204 3205 3206 3207 3207 3208 3208 3209 3208 3208 3207 3207 3206 3205 3205 3205 3204 3203 3202 3201 3200 3199 3199
3187 3188 3189 3189 3191 3190 3193 3193 3194 3193 3194 3195 3195 3196 3196 3196 3196 3196 3198 3197 3198 3200 3200 3201 3203 3204 3205 3206 3206 3207 3209 3209 3208 3208 3208 3208 3207 3207 3206 3206 3205 3205 3204 3203 3202 3201 3201 3200 3199
3187 3188 3190 3189 3190 3190 3191 3193 3194 3193 3194 3195 3196 3196 3196 3196 3196 3197 3198 3198 3199 3200 3201 3202 3203 3204 3205 3206 3206 3208 3208 3208 3208 3208 3208 3208 3207 3207 3207 3207 3206 3205 3204 3203 3202 3202 3201 3200 3199
3188 3190 3190 3190 3190 3191 3192 3193 3194 3194 3195 3195 3196 3196 3197 3196 3196 3197 3199 3199 3199 3200 3201 3202 3203 3204 3205 3206 3206 3207 3207 3208 3208 3208 3208 3207 3207 3206 3205 3205 3205 3204 3204 3203 3203 3202 3202 3201 3200
3188 3189 3189 3190 3191 3192 3193 3194 3195 3195 3195 3196 3196 3197 3196 3196 3197 3198 3199 3199 3199 3200 3201 3202 3203 3204 3205 3206 3206 3207 3207 3207 3207 3206 3206 3206 3205 3205 3205 3205 3205 3205 3204 3204 3204 3203 3202 3201 3200
3188 3189 3190 3191 3191 3192 3193 3194 3195 3195 3195 3196 3197 3196 3196 3196 3196 3197 3198 3199 3200 3201 3201 3202 3203 3204 3204 3205 3205 3205 3205 3206 3206 3206 3205 3205 3204 3204 3205 3205 3205 3205 3205 3205 3204 3203 3202 3201 3201
3188 3189 3189 3190 3191 3192 3193 3193 3194 3195 3195 3196 3196 3196 3197 3196 3196 3197 3198 3199 3200 3200 3201 3202 3202 3203 3203 3204 3204 3204 3205 3205 3206 3206 3206 3205 3205 3205 3204 3204 3204 3204 3203 3203 3203 3202 3201 3200 3200
3187 3189 3189 3189 3190 3192 3192 3193 3193 3194 3195 3194 3195 3195 3196 3196 3196 3196 3197 3199 3199 3200 3200 3201 3201 3201 3202 3203 3204 3204 3205 3205 3206 3206 3206 3205 3205 3204 3204 3203 3202 3202 3202 3202 3202 3201 3200 3200 3199
3186 3188 3187 3187 3189 3191 3192 3192 3193 3194 3194 3194 3194 3195 3195 3195 3195 3195 3196 3197 3198 3199 3199 3200 3200 3200 3201 3201 3201 3202 3202 3203 3203 3203 3203 3204 3204 3203 3202 3202 3202 3202 3203 3203 3203 3201 3200 3198 3197
3184 3185 3186 3186 3187 3188 3190 3191 3191 3192 3192 3193 3193 3194 3194 3194 3195 3195 3195 3195 3196 3197 3197 3198 3198 3199 3199 3200 3200 3200 3200 3200 3200 3201 3201 3201 3201 3200 3200 3201 3201 3200 3199 3199 3199 3199 3198 3196 3195
3183 3184 3184 3185 3186 3186 3187 3189 3189 3189 3189 3191 3192 3191 3192 3193 3193 3194 3194 3194 3194 3195 3195 3196 3196 3196 3197 3197 3196 3196 3197 3198 3198 3199 3198 3198 3198 3198 3198 3198 3197 3196 3196 3195 3195 3194 3194 3192 3191
3182 3182 3183 3183 3183 3184 3184 3185 3186 3186 3187 3188 3189 3189 3189 3189 3190 3191 3191 3192 3192 3193 3193 3193 3193 3194 3194 3194 3194 3195 3195 3195 3195 3195 3195 3195 3195 3195 3195 3195 3196 3195 3194 3193 3192 3190 3189 3189 3187
3179 3180 3180 3181 3181 3181 3181 3181 3182 3182 3184 3185 3186 3186 3186 3186 3187 3188 3188 3189 3190 3190 3190 3190 3190 3190 3190 3190 3190 3190 3191 3191 3191 3192 3192 3193 3193 3193 3193 3193 3193 3193 3192 3191 3190 3189 3188 3187 3185
3177 3177 3177 3178 3178 3178 3178 3178 3178 3180 3180 3181 3182 3183 3183 3183 3183 3183 3184 3185 3186 3187 3187 3187 3187 3187 3187 3187 3187 3187 3187 3187 3187 3187 3188 3189 3189 3190 3190 3190 3191 3191 3190 3190 3189 3188 3187 3185 3184
3174 3174 3174 3175 3175 3175 3175 3174 3174 3177 3177 3176 3177 3178 3178 3178 3179 3179 3180 3181 3182 3183 3183 3183 3183 3183 3184 3184 3184 3184 3184 3184 3184 3184 3185 3186 3186 3187 3187 3188 3187 3188 3188 3187 3186 3185 3184 3183 3181
3172 3172 3171 3171 3171 3171 3172 3168 3172 3172 3172 3173 3173 3173 3173 3174 3175 3175 3175 3176 3177 3178 3179 3179 3180 3180 3180 3180 3180 3180 3181 3181 3181 3181 3182 3182 3183 3184 3184 3184 3184 3184 3184 3183 3182 3180 3179 3178 3177
3168 3168 3168 3169 3168 3168 3168 3165 3168 3168 3168 3169 3169 3169 3169 3169 3170 3170 3171 3172 3173 3174 3174 3175 3175 3175 3176 3175 3176 3176 3177 3177 3178 3178 3178 3179 3180 3180 3180 3180 3180 3180 3179 3179 3179 3178 3177 3176 3175
3165 3165 3164 3165 3166 3164 3163 3161 3163 3163 3163 3164 3163 3164 3164 3165 3166 3166 3166 3167 3167 3168 3169 3169 3170 3170 3170 3171 3171 3172 3172 3173 3174 3175 3176 3177 3176 3176 3176 3176 3177 3177 3176 3176 3175 3174 3173 3173 3171
3162 3161 3161 3162 3162 3160 3158 3156 3158 3159 3157 3157 3158 3158 3158 3159 3160 3159 3160 3160 3161 3162 3163 3164 3164 3165 3166 3166 3167 3167 3168 3169 3171 3172 3174 3174 3173 3173 3173 3173 3173 3173 3172 3172 3171 3171 3170 3169 3169
3156 3156 3155 3156 3157 3156 3153 3149 3151 3152 3150 3151 3152 3151 3150 3151 3151 3151 3152 3153 3155 3156 3156 3158 3159 3159 3160 3161 3161 3163 3163 3164 3164 3165 3167 3169 3169 3168 3168 3168 3168 3168 3168 3168 3167 3166 3165 3164 3164
3151 3150 3152 3153 3151 3149 3147 3136 3141 3143 3143 3143 3143 3143 3142 3141 3141 3141 3143 3146 3147 3149 3150 3151 3152 3153 3154 3154 3156 3157 3158 3159 3160 3161 3162 3164 3164 3163 3163 3163 3163 3164 3164 3163 3163 3162 3161 3160 3158
3145 3148 3148 3148 3148 3144 3142 3127 3129 3133 3133 3134 3135 3134 3133 3132 3132 3131 3133 3135 3138 3141 3142 3144 3145 3147 3147 3148 3150 3152 3153 3154 3156 3157 3158 3159 3159 3158 3158 3158 3159 3159 3159 3158 3157 3156 3155 3154 3152
3141 3144 3145 3144 3142 3139 3136 3135 3115 3122 3121 3124 3126 3124 3123 3121 3121 3122 3124 3127 3130 3131 3133 3135 3137 3139 3140 3142 3144 3145 3146 3148 3150 3151 3152 3153 3153 3153 3153 3153 3153 3153 3153 3152 3151 3149 3147 3145 3143
3138 3139 3141 3139 3138 3131 3127 3129 3105 3113 3113 3116 3118 3117 3117 3116 3114 3113 3115 3117 3120 3122 3124 3126 3129 3131 3133 3135 3137 3139 3141 3143 3145 3146 3146 3147 3147 3147 3148 3148 3148 3147 3147 3145 3144 3142 3140 3137 3134
3132 3136 3138 3137 3134 3120 3120 3116 3095 3104 3108 3109 3109 3110 3109 3107 3106 3105 3105 3108 3112 3115 3117 3119 3121 3123 3126 3129 3131 3133 3136 3137 3139 3140 3140 3141 3142 3142 3142 3142 3141 3141 3140 3138 3136 3134 3131 3129 3126
3124 3127 3127 3130 3125 3114 3112 3096 3089 3097 3102 3103 3103 3101 3100 3098 3098 3099 3100 3102 3105 3107 3109 3111 3113 3116 3119 3122 3125 3127 3129 3131 3133 3134 3135 3135 3136 3136 3136 3135 3135 3134 3133 3131 3128 3126 3123 3120 3116
3115 3116 3122 3120 3114 3113 3100 3088 3087 3090 3092 3096 3096 3093 3091 3091 3091 3093 3094 3095 3097 3099 3102 3104 3106 3109 3113 3116 3119 3121 3123 3125 3127 3127 3128 3129 3130 3130 3129 3128 3128 3127 3126 3122 3119 3118 3115 3111 3107
3106 3111 3115 3117 3117 3112 3088 3082 3077 3081 3085 3088 3089 3088 3086 3085 3085 3086 3088 3089 3091 3093 3095 3097 3099 3103 3108 3110 3113 3115 3117 3119 3119 3120 3121 3122 3123 3123 3122 3122 3121 3120 3117 3114 3112 3109 3106 3103 3099
3097 3098 3102 3105 3103 3097 3091 3071 3071 3076 3080 3082 3084 3085 3084 3081 3081 3081 3082 3084 3085 3086 3088 3091 3094 3098 3101 3103 3106 3108 3110 3111 3112 3113 3114 3115 3116 3116 3115 3115 3114 3111 3108 3106 3104 3101 3098 3095 3091
3087 3084 3089 3090 3090 3087 3079 3051 3066 3071 3075 3077 3078 3080 3079 3078 3077 3076 3076 3077 3079 3081 3083 3085 3088 3091 3094 3096 3099 3101 3103 3103 3104 3105 3107 3108 3108 3107 3107 3107 3105 3102 3100 3098 3096 3093 3090 3087 3084